Location: Goettingen
(51.5300°N, 9.9433°E)
Time: 14:32:37
(UTC+02:00)

ISS - Pass Details

Date: 27 September 2022
Orbit: 414 x 417 km, 51.6° (Epoch: 28 September)

Event Time Altitude Azimuth Distance (km) Brightness Sun altitude
Rises 22:07:23 0° 283° (WNW) 2,364 1.1 -27.3°
Reaches altitude 10° 22:09:43 10° 270° (W) 1,497 -0.3 -27.5°
Enters shadow 22:10:23 14° 262° (W) 1,277 -0.8 -27.6°
